Location: Unspecified
(0.0000°N, 0.0000°E)
Time: 08:22:20
(UTC+00:00)

CZ-4C DEB - Pass Details

Date: 20 March 2026
Orbit: 805 x 1381 km, 63.4° (Epoch: 18 April)

Event Time Altitude Azimuth Distance (km) Brightness Sun altitude
Rises 19:33:54 0° 308° (NW) 4,304 ? -21.6°
Reaches altitude 10° 19:37:25 10° 295° (WNW) 3,389 ? -22.5°
Maximum altitude 19:43:40 23° 246° (WSW) 2,563 ? -24.1°
Drops below altitude 10° 19:50:04 10° 197° (SSW) 3,437 ? -25.7°
Sets 19:53:43 0° 183° (S) 4,378 ? -26.6°
